User: anonymous
Location: Arrakis Observatory
(44.1122°N, 95.7153°W)
Time: 12:32:00
(UTC-05:00)
Language:

Coronas F rocket - Orbit

View from above orbital plane
View from above orbital plane
View from above satellite
View from above satellite

Ground track
Ground track

The orbit data is extracted from the following two-line orbital elements,

1 26874U 01032B   14244.74885199  .00009476  00000-0  14715-3 0  7736
2 26874 082.4703 263.0097 0016647 130.0626 230.2090 15.53609879733183
Epoch (UTC): 01 September 2014 17:58:20
Eccentricity: 0.0016647
inclination: 82.4703°
perigee height: 395 km
apogee height: 417 km
right ascension of ascending node: 263.0097°
argument of perigee: 130.0626°
revolutions per day: 15.53609879
mean anomaly at epoch: 230.2090°
orbit number at epoch: 73318

The dashed part of the orbit path shows where the satellite is in the earth's shadow,  

DLR